#timestamp,LO_Frequency,Hit,StdDev 
1618765215.2,286047001.5,N
1618765235.1,286047002.8,N
1618765236.0,286047002.8,N
1618765255.8,286047000.5,N
1618765275.6,286046999.7,N
1618765295.5,286047000.8,N
1618765315.3,286046999.0,N
1618765335.1,286046998.8,N
1618765355.9,286047000.9,N
1618765375.7,286047000.5,N
1618765395.6,286047003.5,N
1618765415.4,286047003.6,N
1618765435.2,286047003.3,N
1618765455.1,286047005.9,N
1618765456.0,286047005.9,N
1618765475.8,286047005.0,N
1618765495.6,286047006.0,N
1618765515.5,286047003.6,N
1618765535.3,286047004.4,N
1618765555.2,286047002.4,N
1618765575.9,286047000.6,N
1618765595.7,286047000.5,N
1618765615.6,286047001.5,N
1618765635.4,286047003.9,N
1618765655.3,286047004.4,N
1618765675.1,286047001.9,N
1618765676.0,286047001.9,N
1618765695.8,286047002.6,N
1618765715.7,286047001.5,N
1618765735.5,286047001.7,N
1618765755.3,286047004.4,N
1618765775.2,286047001.5,N
1618765795.0,286047001.4,N
1618765795.9,286047001.4,N
1618765815.8,286047003.9,N
1618765835.6,286047002.1,N
1618765855.4,286047000.4,N
1618765875.3,286046998.7,N
1618765895.1,286047000.9,N
1618765915.9,286047000.6,N
1618765935.7,286047000.3,N
1618765955.6,286047002.8,N
1618765975.4,286047002.1,N
1618765995.2,286047000.6,N
1618766015.1,286046998.2,N
1618766016.0,286046998.2,N
1618766035.8,286047000.7,N
1618766055.6,286047000.9,N
1618766075.5,286046998.7,N
1618766095.3,286047000.8,N
1618766115.2,286046999.8,N
1618766135.9,286046998.1,N
1618766155.7,286047000.9,N
1618766175.6,286047000.4,N
1618766195.4,286047001.0,N
1618766215.2,286047000.5,N
1618766235.1,286047002.4,N
1618766236.0,286047002.4,N
1618766255.8,286047002.2,N
1618766275.7,286047001.9,N
1618766295.5,286046999.7,N
1618766315.3,286046999.7,N
1618766335.2,286047002.2,N
1618766355.9,286047000.2,N
1618766375.7,286047000.1,N
1618766395.6,286047002.3,N
1618766415.4,286047001.6,N
1618766435.2,286047002.5,N
1618766455.1,286047002.0,N
1618766456.0,286047002.0,N
1618766475.8,286047002.4,N
1618766495.7,286047001.6,N
1618766515.5,286047004.2,Y
1618766535.3,286047004.1,P
1618766555.2,286047005.5,P
1618766575.0,286047003.5,N
1618766575.9,286047003.5,N
1618766595.8,286047003.3,N
1618766615.6,286047003.9,N
1618766635.4,286047003.6,N
1618766655.3,286047003.9,Y
1618766675.1,286046998.3,P
1618766695.8,286046999.0,N
1618766715.7,286046996.7,N
1618766735.5,286046998.0,N
1618766755.4,286046995.1,N
1618766775.2,286046997.2,N
1618766795.0,286046997.4,N
1618766795.9,286046997.4,N
1618766815.8,286046994.9,N
1618766835.6,286046997.6,N
1618766855.4,286046997.6,N
1618766875.3,286046994.9,N
1618766895.1,286046994.9,N
1618766915.9,286046997.8,N
1618766935.7,286046997.8,N
1618766955.5,286046995.6,N
1618766975.4,286046996.4,N
1618766995.2,286046993.8,Y
1618767015.0,286047000.8,P
1618767015.9,286047000.8,N
1618767035.8,286047001.2,N
1618767055.6,286046998.5,N
1618767075.5,286046998.6,N
1618767095.3,286046997.0,N
1618767115.1,286046998.7,N
1618767135.9,286046998.8,N
1618767155.7,286046998.9,N
1618767175.5,286046998.3,N
1618767195.4,286046996.8,N
1618767215.2,286046997.5,N
1618767235.1,286046997.7,N
1618767236.0,286046997.7,N
1618767255.8,286046997.2,N
1618767275.6,286046999.0,N
1618767295.5,286047001.1,N
1618767315.3,286047000.5,N
1618767335.1,286046998.8,N
1618767355.9,286046999.2,N
1618767375.7,286046999.1,N
1618767395.6,286046996.9,N
1618767415.4,286046996.9,N
1618767435.2,286046997.6,N
1618767455.1,286046997.6,N
1618767456.0,286046997.6,N
1618767475.8,286046995.0,Y
1618767495.7,286046999.9,P
1618767515.5,286046999.7,N
1618767535.3,286047002.5,P
1618767555.2,286047000.0,N
1618767575.0,286046996.7,N
1618767575.9,286046996.7,N
1618767595.7,286046995.0,N
1618767615.6,286046995.5,N
1618767635.4,286046995.0,N
1618767655.3,286046998.9,N
1618767675.1,286047000.0,N
1618767676.0,286047000.0,N
1618767695.8,286047000.4,N
1618767715.7,286047000.7,N
1618767735.5,286046998.1,N
1618767755.4,286047000.9,N
1618767775.2,286047002.7,N
1618767795.0,286047000.4,N
1618767795.9,286047000.4,N
1618767815.8,286046998.7,N
1618767835.6,286046998.4,N
1618767855.4,286046996.9,N
1618767875.3,286047001.0,N
1618767895.1,286047002.8,N
1618767915.9,286046999.3,N
1618767935.7,286046999.0,N
1618767955.5,286046998.8,N
1618767975.4,286046997.1,N
1618767995.2,286046999.4,N
1618768015.1,286046998.5,N
1618768016.0,286046998.5,N
1618768035.8,286047000.5,N
1618768055.6,286047002.4,N
1618768075.5,286047003.8,N
1618768095.3,286047003.6,N
1618768115.2,286047003.7,N
1618768135.9,286047003.0,N
1618768155.7,286047003.3,N
1618768175.6,286047007.0,Y
1618768195.4,286047009.9,P
1618768215.3,286047008.7,N
1618768235.1,286047006.2,N
1618768236.0,286047006.2,N
1618768255.8,286047006.7,N
1618768275.7,286047004.8,N
1618768295.5,286047005.6,N
1618768315.3,286047006.0,N
1618768335.2,286047005.8,N
1618768355.0,286047003.5,N
1618768355.9,286047003.5,N
1618768375.8,286047005.6,N
1618768395.6,286047007.3,Y
1618768415.4,286046998.3,P
1618768435.3,286046996.8,N
1618768455.1,286046995.4,N
1618768475.9,286046996.2,N
1618768495.7,286046996.4,N
1618768515.5,286046993.3,N
1618768535.4,286046996.2,N
1618768555.2,286046995.3,N
1618768575.1,286046995.0,N
1618768576.0,286046995.0,N
1618768595.8,286046993.4,N
1618768615.6,286046993.4,N
1618768635.5,286046995.8,N
1618768655.3,286046995.4,N
1618768675.1,286046997.3,N
1618768695.9,286046995.1,N
1618768715.7,286046995.3,N
1618768735.6,286046996.5,N
1618768755.4,286047011.9,Y
1618768775.2,286047000.4,P
1618768795.1,286047000.8,N
1618768796.0,286047000.8,N
